Location: Sunkist
(34.0772°N, 117.1909°W)
Time: 14:52:32
(UTC+00:00)

Cosmos 1674 - Pass Details

Date: 13 April 2024
Orbit: 440 x 455 km, 82.5° (Epoch: 19 May)

Event Time Altitude Azimuth Distance (km) Brightness Sun altitude
Rises 12:43:13 0° 201° (SSW) 2,418 5.7 -8.1°
Reaches altitude 10° 12:45:21 10° 209° (SSW) 1,551 4.7 -7.7°
Maximum altitude 12:48:31 38° 279° (W) 686 2.9 -7.1°
Drops below altitude 10° 12:51:41 10° 349° (N) 1,548 5.2 -6.4°
Sets 12:53:52 0° 358° (N) 2,434 6.3 -6.0°
